Time,TemperatureF,DewpointF,PressureIn,WindDirection,WindDirectionDegrees,WindSpeedMPH,WindSpeedGustMPH,Humidity,HourlyPrecipIn,Conditions,Clouds,dailyrainin,SoftwareType,DateUTC
2013-05-15 00:03:00,59.0,-99.9,-100.00,North,0,0.0,0.0,-999,0.00,,,-99.99,,2013-05-15 06:03:00,
2013-05-15 00:12:00,59.0,-99.9,-100.00,North,0,0.0,0.0,-999,0.00,,,-99.99,,2013-05-15 06:12:00,
2013-05-15 00:22:00,58.0,-99.9,-100.00,North,0,0.0,0.0,-999,0.00,,,-99.99,,2013-05-15 06:22:00,
2013-05-15 00:32:00,58.0,-99.9,-100.00,North,0,0.0,0.0,-999,0.00,,,-99.99,,2013-05-15 06:32:00,
2013-05-15 00:42:00,59.0,-99.9,-100.00,North,0,0.0,0.0,-999,0.00,,,-99.99,,2013-05-15 06:42:00,
2013-05-15 00:52:00,59.0,-99.9,-100.00,North,0,0.0,0.0,-999,0.00,,,-99.99,,2013-05-15 06:52:00,
2013-05-15 01:01:00,58.0,-99.9,-100.00,North,0,0.0,0.0,-999,0.00,,,-99.99,,2013-05-15 07:01:00,
2013-05-15 01:11:00,58.0,-99.9,-100.00,North,0,0.0,0.0,-999,0.00,,,-99.99,,2013-05-15 07:11:00,
2013-05-15 01:22:00,56.0,-99.9,-100.00,North,0,0.0,0.0,-999,0.00,,,-99.99,,2013-05-15 07:22:00,
2013-05-15 01:32:00,55.0,-99.9,-100.00,North,0,0.0,0.0,-999,0.00,,,-99.99,,2013-05-15 07:32:00,
2013-05-15 01:42:00,55.0,-99.9,-100.00,North,0,0.0,0.0,-999,0.00,,,-99.99,,2013-05-15 07:42:00,
2013-05-15 01:52:00,56.0,-99.9,-100.00,North,0,0.0,0.0,-999,0.00,,,-99.99,,2013-05-15 07:52:00,
2013-05-15 02:02:00,57.0,-99.9,-100.00,North,0,0.0,0.0,-999,0.00,,,-99.99,,2013-05-15 08:02:00,
2013-05-15 02:12:00,58.0,-99.9,-100.00,North,0,0.0,0.0,-999,0.00,,,-99.99,,2013-05-15 08:12:00,
2013-05-15 02:22:00,58.0,-99.9,-100.00,North,0,0.0,0.0,-999,0.00,,,-99.99,,2013-05-15 08:22:00,
2013-05-15 02:32:00,59.0,-99.9,-100.00,North,0,0.0,0.0,-999,0.00,,,-99.99,,2013-05-15 08:32:00,
2013-05-15 02:42:00,60.0,-99.9,-100.00,North,0,0.0,0.0,-999,0.00,,,-99.99,,2013-05-15 08:42:00,
2013-05-15 02:53:00,60.0,-99.9,-100.00,North,0,0.0,0.0,-999,0.00,,,-99.99,,2013-05-15 08:53:00,
2013-05-15 03:01:00,60.0,-99.9,-100.00,North,0,0.0,0.0,-999,0.00,,,-99.99,,2013-05-15 09:01:00,
2013-05-15 03:12:00,60.0,-99.9,-100.00,North,0,0.0,0.0,-999,0.00,,,-99.99,,2013-05-15 09:12:00,
2013-05-15 03:22:00,60.0,-99.9,-100.00,North,0,0.0,0.0,-999,0.00,,,-99.99,,2013-05-15 09:22:00,
2013-05-15 03:33:00,60.0,-99.9,-100.00,North,0,0.0,0.0,-999,0.00,,,-99.99,,2013-05-15 09:33:00,
2013-05-15 03:53:00,59.0,-99.9,-100.00,North,0,0.0,0.0,-999,0.00,,,-99.99,,2013-05-15 09:53:00,
2013-05-15 04:02:00,58.0,-99.9,-100.00,North,0,0.0,0.0,-999,0.00,,,-99.99,,2013-05-15 10:02:00,
2013-05-15 04:13:00,58.0,-99.9,-100.00,NNE,28,1.0,6.0,-999,0.00,,,-99.99,,2013-05-15 10:13:00,
2013-05-15 04:23:00,58.0,-99.9,-100.00,NNE,28,1.0,6.0,-999,0.00,,,-99.99,,2013-05-15 10:23:00,
2013-05-15 04:32:00,58.0,-99.9,-100.00,NNE,21,0.0,3.0,-999,0.00,,,-99.99,,2013-05-15 10:32:00,
2013-05-15 04:43:00,58.0,-99.9,-100.00,NNE,25,1.0,5.0,-999,0.00,,,-99.99,,2013-05-15 10:43:00,
2013-05-15 04:53:00,58.0,-99.9,-100.00,NNE,25,1.0,5.0,-999,0.00,,,-99.99,,2013-05-15 10:53:00,
2013-05-15 05:15:00,58.0,-99.9,-100.00,NE,34,2.0,8.0,-999,0.00,,,-99.99,,2013-05-15 11:15:00,
2013-05-15 05:29:00,58.0,-99.9,-100.00,North,8,2.0,6.0,-999,0.00,,,-99.99,,2013-05-15 11:29:00,
2013-05-15 05:41:00,58.0,-99.9,-100.00,North,359,2.0,6.0,-999,0.00,,,-99.99,,2013-05-15 11:41:00,
2013-05-15 05:51:00,58.0,-99.9,-100.00,NNE,14,2.0,7.0,-999,0.00,,,-99.99,,2013-05-15 11:51:00,
2013-05-15 06:03:00,58.0,-99.9,-100.00,NNE,14,2.0,7.0,-999,0.00,,,-99.99,,2013-05-15 12:03:00,
2013-05-15 06:11:00,57.0,-99.9,-100.00,North,6,6.0,9.0,-999,0.00,,,-99.99,,2013-05-15 12:11:00,
2013-05-15 06:17:00,57.0,-99.9,-100.00,North,6,7.0,9.0,-999,0.00,,,-99.99,,2013-05-15 12:17:00,
2013-05-15 06:30:00,57.0,-99.9,-100.00,North,6,7.0,9.0,-999,0.00,,,-99.99,,2013-05-15 12:30:00,
2013-05-15 06:38:00,57.0,-99.9,-100.00,NNE,15,5.0,10.0,-999,0.00,,,-99.99,,2013-05-15 12:38:00,
2013-05-15 06:49:00,57.0,-99.9,-100.00,NNE,15,5.0,10.0,-999,0.00,,,-99.99,,2013-05-15 12:49:00,
2013-05-15 06:58:00,57.0,-99.9,-100.00,North,4,4.0,7.0,-999,0.00,,,-99.99,,2013-05-15 12:58:00,
2013-05-15 07:13:00,58.0,-99.9,-100.00,NNE,14,2.0,6.0,-999,0.00,,,-99.99,,2013-05-15 13:13:00,
2013-05-15 07:20:00,58.0,-99.9,-100.00,North,10,2.0,5.0,-999,0.00,,,-99.99,,2013-05-15 13:20:00,
2013-05-15 07:29:00,58.0,-99.9,-100.00,North,10,2.0,5.0,-999,0.00,,,-99.99,,2013-05-15 13:29:00,
2013-05-15 07:38:00,58.0,-99.9,-100.00,North,10,6.0,9.0,-999,0.00,,,-99.99,,2013-05-15 13:38:00,
2013-05-15 08:00:00,58.0,-99.9,-100.00,North,7,6.0,9.0,-999,0.00,,,-99.99,,2013-05-15 14:00:00,
2013-05-15 08:14:00,60.0,-99.9,-100.00,North,357,8.0,10.0,-999,0.00,,,-99.99,,2013-05-15 14:14:00,
2013-05-15 08:29:00,60.0,-99.9,-100.00,North,357,8.0,10.0,-999,0.00,,,-99.99,,2013-05-15 14:29:00,
2013-05-15 08:39:00,60.0,-99.9,-100.00,North,0,8.0,11.0,-999,0.00,,,-99.99,,2013-05-15 14:39:00,
2013-05-15 08:52:00,60.0,-99.9,-100.00,North,0,8.0,11.0,-999,0.00,,,-99.99,,2013-05-15 14:52:00,
2013-05-15 09:01:00,62.0,-99.9,-100.00,North,1,8.0,10.0,-999,0.00,,,-99.99,,2013-05-15 15:01:00,
2013-05-15 09:16:00,62.0,-99.9,-100.00,North,3,7.0,9.0,-999,0.00,,,-99.99,,2013-05-15 15:16:00,
2013-05-15 09:30:00,62.0,-99.9,-100.00,North,3,7.0,9.0,-999,0.00,,,-99.99,,2013-05-15 15:30:00,
2013-05-15 09:42:00,63.0,-99.9,-100.00,North,359,5.0,9.0,-999,0.00,,,-99.99,,2013-05-15 15:42:00,
2013-05-15 09:50:00,63.0,-99.9,-100.00,North,359,5.0,9.0,-999,0.00,,,-99.99,,2013-05-15 15:50:00,
2013-05-15 10:03:00,64.0,-99.9,-100.00,North,7,6.0,9.0,-999,0.00,,,-99.99,,2013-05-15 16:03:00,
2013-05-15 10:10:00,65.0,-99.9,-100.00,North,0,0.0,0.0,-999,0.00,,,-99.99,,2013-05-15 16:10:00,
2013-05-15 10:25:00,65.0,-99.9,-100.00,NE,45,5.0,6.0,-999,0.00,,,-99.99,,2013-05-15 16:25:00,
2013-05-15 10:41:00,67.0,-99.9,-100.00,NE,34,5.0,6.0,-999,0.00,,,-99.99,,2013-05-15 16:41:00,
2013-05-15 10:52:00,67.0,-99.9,-100.00,NE,34,5.0,6.0,-999,0.00,,,-99.99,,2013-05-15 16:52:00,
2013-05-15 11:03:00,67.0,-99.9,-100.00,NNE,28,5.0,6.0,-999,0.00,,,-99.99,,2013-05-15 17:03:00,
2013-05-15 11:22:00,66.0,-99.9,-100.00,North,0,0.0,0.0,-999,0.00,,,-99.99,,2013-05-15 17:22:00,
2013-05-15 11:29:00,68.0,-99.9,-100.00,North,0,0.0,0.0,-999,0.00,,,-99.99,,2013-05-15 17:29:00,
2013-05-15 11:39:00,68.0,-99.9,-100.00,North,10,2.0,8.0,-999,0.00,,,-99.99,,2013-05-15 17:39:00,
2013-05-15 11:49:00,68.0,-99.9,-100.00,North,10,2.0,8.0,-999,0.00,,,-99.99,,2013-05-15 17:49:00,
2013-05-15 12:18:00,69.0,-99.9,-100.00,NE,34,1.0,5.0,-999,0.00,,,-99.99,,2013-05-15 18:18:00,
2013-05-15 12:28:00,69.0,-99.9,-100.00,NE,34,1.0,5.0,-999,0.00,,,-99.99,,2013-05-15 18:28:00,
2013-05-15 12:39:00,70.0,-99.9,-100.00,North,0,0.0,0.0,-999,0.00,,,-99.99,,2013-05-15 18:39:00,
2013-05-15 12:50:00,70.0,-99.9,-100.00,North,0,0.0,0.0,-999,0.00,,,-99.99,,2013-05-15 18:50:00,
2013-05-15 13:00:00,70.0,-99.9,-100.00,North,0,0.0,0.0,-999,0.00,,,-99.99,,2013-05-15 19:00:00,
2013-05-15 13:16:00,72.0,-99.9,-100.00,North,0,0.0,0.0,-999,0.00,,,-99.99,,2013-05-15 19:16:00,
2013-05-15 13:32:00,71.0,-99.9,-100.00,North,0,0.0,0.0,-999,0.00,,,-99.99,,2013-05-15 19:32:00,
2013-05-15 13:40:00,71.0,-99.9,-100.00,North,0,0.0,0.0,-999,0.00,,,-99.99,,2013-05-15 19:40:00,
2013-05-15 13:50:00,71.0,-99.9,-100.00,North,0,0.0,0.0,-999,0.00,,,-99.99,,2013-05-15 19:50:00,
2013-05-15 14:11:00,73.0,-99.9,-100.00,North,0,0.0,0.0,-999,0.00,,,-99.99,,2013-05-15 20:11:00,
2013-05-15 14:21:00,73.0,-99.9,-100.00,North,0,0.0,0.0,-999,0.00,,,-99.99,,2013-05-15 20:21:00,
2013-05-15 14:31:00,73.0,-99.9,-100.00,North,0,0.0,0.0,-999,0.00,,,-99.99,,2013-05-15 20:31:00,
2013-05-15 14:41:00,74.0,-99.9,-100.00,North,0,0.0,0.0,-999,0.00,,,-99.99,,2013-05-15 20:41:00,
2013-05-15 14:48:00,74.0,-99.9,-100.00,North,0,0.0,0.0,-999,0.00,,,-99.99,,2013-05-15 20:48:00,
2013-05-15 15:00:00,75.0,-99.9,-100.00,North,0,0.0,0.0,-999,0.00,,,-99.99,,2013-05-15 21:00:00,
2013-05-15 15:10:00,74.0,-99.9,-100.00,North,0,0.0,0.0,-999,0.00,,,-99.99,,2013-05-15 21:10:00,
2013-05-15 15:21:00,74.0,-99.9,-100.00,North,0,0.0,0.0,-999,0.00,,,-99.99,,2013-05-15 21:21:00,
2013-05-15 15:29:00,76.0,-99.9,-100.00,North,0,0.0,0.0,-999,0.00,,,-99.99,,2013-05-15 21:29:00,
2013-05-15 15:43:00,81.0,-99.9,-100.00,North,0,0.0,0.0,-999,0.00,,,-99.99,,2013-05-15 21:43:00,
2013-05-15 16:01:00,75.0,-99.9,-100.00,North,0,0.0,0.0,-999,0.00,,,-99.99,,2013-05-15 22:01:00,
2013-05-15 16:12:00,78.0,-99.9,-100.00,North,0,0.0,0.0,-999,0.00,,,-99.99,,2013-05-15 22:12:00,
2013-05-15 16:20:00,78.0,-99.9,-100.00,North,0,0.0,0.0,-999,0.00,,,-99.99,,2013-05-15 22:20:00,
2013-05-15 16:31:00,77.0,-99.9,-100.00,North,0,0.0,0.0,-999,0.00,,,-99.99,,2013-05-15 22:31:00,
2013-05-15 16:43:00,74.0,-99.9,-100.00,North,0,0.0,0.0,-999,0.00,,,-99.99,,2013-05-15 22:43:00,
2013-05-15 16:53:00,74.0,-99.9,-100.00,North,0,0.0,0.0,-999,0.00,,,-99.99,,2013-05-15 22:53:00,
2013-05-15 17:02:00,76.0,-99.9,-100.00,North,0,0.0,0.0,-999,0.00,,,-99.99,,2013-05-15 23:02:00,
2013-05-15 17:11:00,75.0,-99.9,-100.00,North,359,2.0,6.0,-999,0.00,,,-99.99,,2013-05-15 23:11:00,
2013-05-15 17:18:00,75.0,-99.9,-100.00,North,359,2.0,6.0,-999,0.00,,,-99.99,,2013-05-15 23:18:00,
2013-05-15 17:31:00,75.0,-99.9,-100.00,North,0,0.0,0.0,-999,0.00,,,-99.99,,2013-05-15 23:31:00,
2013-05-15 17:40:00,75.0,-99.9,-100.00,North,0,0.0,0.0,-999,0.00,,,-99.99,,2013-05-15 23:40:00,
2013-05-15 18:01:00,75.0,-99.9,-100.00,North,0,0.0,0.0,-999,0.00,,,-99.99,,2013-05-16 00:01:00,
2013-05-15 18:37:00,72.0,-99.9,-100.00,North,0,0.0,0.0,-999,0.00,,,-99.99,,2013-05-16 00:37:00,
2013-05-15 18:53:00,68.0,-99.9,-100.00,North,0,0.0,0.0,-999,0.00,,,-99.99,,2013-05-16 00:53:00,
2013-05-15 18:59:00,68.0,-99.9,-100.00,North,0,0.0,0.0,-999,0.00,,,-99.99,,2013-05-16 00:59:00,
2013-05-15 19:10:00,68.0,-99.9,-100.00,North,0,0.0,0.0,-999,0.00,,,-99.99,,2013-05-16 01:10:00,
2013-05-15 19:20:00,67.0,-99.9,-100.00,North,0,0.0,0.0,-999,0.00,,,-99.99,,2013-05-16 01:20:00,
2013-05-15 19:30:00,67.0,-99.9,-100.00,North,0,0.0,0.0,-999,0.00,,,-99.99,,2013-05-16 01:30:00,
2013-05-15 20:03:00,66.0,-99.9,-100.00,North,0,0.0,0.0,-999,0.00,,,-99.99,,2013-05-16 02:03:00,
2013-05-15 20:09:00,66.0,-99.9,-100.00,North,0,0.0,0.0,-999,0.00,,,-99.99,,2013-05-16 02:09:00,
2013-05-15 20:18:00,66.0,-99.9,-100.00,North,0,0.0,0.0,-999,0.00,,,-99.99,,2013-05-16 02:18:00,
2013-05-15 20:30:00,66.0,-99.9,-100.00,North,0,0.0,0.0,-999,0.00,,,-99.99,,2013-05-16 02:30:00,
2013-05-15 20:40:00,64.0,-99.9,-100.00,North,0,0.0,0.0,-999,0.00,,,-99.99,,2013-05-16 02:40:00,
2013-05-15 20:50:00,64.0,-99.9,-100.00,North,0,0.0,0.0,-999,0.00,,,-99.99,,2013-05-16 02:50:00,
2013-05-15 20:57:00,64.0,-99.9,-100.00,North,0,0.0,0.0,-999,0.00,,,-99.99,,2013-05-16 02:57:00,
2013-05-15 21:08:00,63.0,-99.9,-100.00,North,0,0.0,0.0,-999,0.00,,,-99.99,,2013-05-16 03:08:00,
2013-05-15 21:18:00,63.0,-99.9,-100.00,North,0,0.0,0.0,-999,0.00,,,-99.99,,2013-05-16 03:18:00,
2013-05-15 21:28:00,63.0,-99.9,-100.00,North,0,0.0,0.0,-999,0.00,,,-99.99,,2013-05-16 03:28:00,
2013-05-15 21:48:00,62.0,-99.9,-100.00,North,0,0.0,0.0,-999,0.00,,,-99.99,,2013-05-16 03:48:00,
2013-05-15 22:03:00,61.0,-99.9,-100.00,North,0,0.0,0.0,-999,0.00,,,-99.99,,2013-05-16 04:03:00,
2013-05-15 22:12:00,61.0,-99.9,-100.00,North,0,0.0,0.0,-999,0.00,,,-99.99,,2013-05-16 04:12:00,
2013-05-15 22:23:00,60.0,-99.9,-100.00,North,0,0.0,0.0,-999,0.00,,,-99.99,,2013-05-16 04:23:00,
2013-05-15 22:33:00,60.0,-99.9,-100.00,North,0,0.0,0.0,-999,0.00,,,-99.99,,2013-05-16 04:33:00,
2013-05-15 22:43:00,60.0,-99.9,-100.00,North,0,0.0,0.0,-999,0.00,,,-99.99,,2013-05-16 04:43:00,
2013-05-15 22:53:00,61.0,-99.9,-100.00,North,0,0.0,0.0,-999,0.00,,,-99.99,,2013-05-16 04:53:00,
2013-05-15 23:03:00,60.0,-99.9,-100.00,East,79,1.0,5.0,-999,0.00,,,-99.99,,2013-05-16 05:03:00,
2013-05-15 23:12:00,60.0,-99.9,-100.00,East,79,1.0,5.0,-999,0.00,,,-99.99,,2013-05-16 05:12:00,
2013-05-15 23:22:00,60.0,-99.9,-100.00,East,82,1.0,5.0,-999,0.00,,,-99.99,,2013-05-16 05:22:00,
2013-05-15 23:32:00,59.0,-99.9,-100.00,East,96,0.0,2.0,-999,0.00,,,-99.99,,2013-05-16 05:32:00,
2013-05-15 23:42:00,59.0,-99.9,-100.00,East,96,0.0,2.0,-999,0.00,,,-99.99,,2013-05-16 05:42:00,
2013-05-15 23:52:00,59.0,-99.9,-100.00,North,0,0.0,0.0,-999,0.00,,,-99.99,,2013-05-16 05:52:00,